Location: Newark
(52.3500°N, 175.9667°E)
Time: 21:02:57
(UTC+00:00)

Transit 4A - Pass Details

Date: 27 April 2021
Orbit: 871 x 974 km, 66.8° (Epoch: 16 May)

Event Time Altitude Azimuth Distance (km) Brightness Sun altitude
Rises 12:17:16 0° 254° (WSW) 3,601 10.8 -23.6°
Reaches altitude 10° 12:20:04 10° 264° (W) 2,643 10.2 -23.6°
Maximum altitude 12:25:38 34° 328° (NNW) 1,458 9.3 -23.6°
Drops below altitude 10° 12:31:05 10° 33° (NNE) 2,585 11.0 -23.5°
Sets 12:33:48 0° 43° (NE) 3,513 11.7 -23.5°
